Regional Weather Roundup
Issued by NWS

Home | Current Version | Previous Version | Graphics & Text | Print | Product List | Glossary On
Versions: 1 2 3 4 5 6 7 8 9 10 11 12 13 14 15 16 17 18 19 20 21 22 23 24 25 26 27 28 29 30 31 32 33 34 35 36 37 38 39 40 41 42 43 44 45 46 47 48 49 50
000
ASUS43 KOAX 020002
RWRNE

WEATHER ROUNDUP FOR NEBRASKA
NATIONAL WEATHER SERVICE OMAHA NE
700 PM CDT TUE SEP 01 2015

NOTES: SATELLITE DATA IS BEING USED TO AUGMENT CLOUD COVER ABOVE
       12000 FEET.
       "FAIR" INDICATES FEW OR NO CLOUDS BELOW 12,000 FEET WITH NO
       SIGNIFICANT WEATHER AND/OR OBSTRUCTIONS TO VISIBILITY.

  * THESE STATIONS DO NOT REPORT WEATHER SUCH AS RAIN...SNOW OR FOG.

NEZ001>004-019>022-054>056-020100-
NEBRASKA PANHANDLE

CITY           SKY/WX    TMP DP  RH WIND       PRES   REMARKS
SCOTTSBLUFF    SUNNY     90  43  19 SE6       29.91S
6HR MIN TEMP:  84; 6HR MAX TEMP:  94;

ALLIANCE       SUNNY     91  40  16 SW9       29.90S
6HR MIN TEMP:  87; 6HR MAX TEMP:  95;

CHADRON        SUNNY     94  37  13 NW5       29.83S
6HR MIN TEMP:  89; 6HR MAX TEMP:  97;

KIMBALL        MOSUNNY   87  33  14 CALM      29.98S
SIDNEY         SUNNY     90  40  17 SE12      29.96S
6HR MIN TEMP:  88; 6HR MAX TEMP:  94;

$$

NEZ057>060-069>072-079>082-020100-
SOUTHWEST NEBRASKA

CITY           SKY/WX    TMP DP  RH WIND       PRES   REMARKS
NORTH PLATTE   SUNNY     89  57  33 SW6       29.88S
6HR MIN TEMP:  85; 6HR MAX TEMP:  92;

IMPERIAL       SUNNY     93  39  15 SW5       29.92S
6HR MIN TEMP:  85; 6HR MAX TEMP:  94;

LEXINGTON      SUNNY     87  64  46 SE12      29.89S
MCCOOK         SUNNY     93  55  27 S6        29.88F HX  91
6HR MIN TEMP:  86; 6HR MAX TEMP:  95;

$$

NEZ005>010-023>029-035>040-094-020100-
NORTH CENTRAL NEBRASKA

CITY           SKY/WX    TMP DP  RH WIND       PRES   REMARKS
VALENTINE      SUNNY     91  55  29 S16       29.83S
6HR MIN TEMP:  85; 6HR MAX TEMP:  93;

AINSWORTH      SUNNY     86  60  41 S8        29.87S
BROKEN BOW     SUNNY     89  64  43 S7        29.88S HX  90
6HR MIN TEMP:  87; 6HR MAX TEMP:  91;

ORD            SUNNY     87  63  44 S12G18    29.85S
6HR MIN TEMP:  85; 6HR MAX TEMP:  91;

$$

NEZ041-046>049-061>064-073>077-083>087-020100-
SOUTH CENTRAL NEBRASKA

CITY           SKY/WX    TMP DP  RH WIND       PRES   REMARKS
GRAND ISLAND   MOSUNNY   91  62  37 S8        29.87S HX  91
6HR MIN TEMP:  86; 6HR MAX TEMP:  93;

AURORA         PTSUNNY   87  66  48 S12       29.87S
HASTINGS       PTSUNNY   89  65  44 S7        29.87F HX  91
6HR MIN TEMP:  85; 6HR MAX TEMP:  91;

KEARNEY *      PTSUNNY   88  64  45 S8        29.88S
YORK           PTSUNNY   84  66  54 S10       29.87F
$$

NEZ011>018-030>034-042>045-020100-
NORTHEAST NEBRASKA

CITY           SKY/WX    TMP DP  RH WIND       PRES   REMARKS
NORFOLK        MOSUNNY   86  71  60 S9        29.85S HX  91
6HR MIN TEMP:  80; 6HR MAX TEMP:  89;

ALBION         MOSUNNY   85  68  57 S3        29.86F
BLAIR          MOCLDY    85  70  60 SE9       29.90S
COLUMBUS *     SUNNY     84  66  54 S8        29.86S
FREMONT        MOSUNNY   85  67  54 SE10      29.88S
TEKAMAH        PTCLDY    84  75  74 SE10      29.87F HX  92
6HR MIN TEMP:  84; 6HR MAX TEMP:  89;

$$

NEZ050>053-065>068-078-088>093-020100-
SOUTHEAST NEBRASKA

CITY           SKY/WX    TMP DP  RH WIND       PRES   REMARKS
LINCOLN        MOSUNNY   86  65  49 S16       29.88S
6HR MIN TEMP:  86; 6HR MAX TEMP:  93;

OMAHA EPPLEY   MOCLDY    86  71  60 SE16      29.89S HX  91
6HR MIN TEMP:  85; 6HR MAX TEMP:  90;

BEATRICE       PTSUNNY   85  65  52 SE12      29.90S
FALLS CITY     CLEAR     84  68  58 S12       29.93R
6HR MIN TEMP:  84; 6HR MAX TEMP:  93;

NEBRASKA CITY  PTCLDY    82  61  49 S10       29.92S
PLATTSMOUTH    PTCLDY    83  65  53 SE12      29.91S
$$

NEZ044-045-051>053-067-020100-
OMAHA AREA

CITY           SKY/WX    TMP DP  RH WIND       PRES   REMARKS
OMAHA EPPLEY   MOCLDY    86  71  60 SE16      29.89S HX  91
6HR MIN TEMP:  85; 6HR MAX TEMP:  90;

BLAIR          MOCLDY    85  70  60 SE9       29.90S
FREMONT        MOSUNNY   85  67  54 SE10      29.88S
OFFUTT AFB     MOCLDY    84  72  66 SE12      29.89S HX  90
PLATTSMOUTH    PTCLDY    83  65  53 SE12      29.91S
WAHOO          FAIR      82  71  69 SE7       29.88S
$$



USA.gov is the U.S. government's official web portal to all federal, state and local government web resources and services.